| time (UTC) | temp F | wind direction | speed MPH | gust MPH | rain 1hr in | rain 24hr in | rain mn in | humidity % | barometer mb |
| 20260903145216 | 67 | 12 | 2.0 | 5.0 | 0.00 | 0.00 | 0.00 | 20 | 1018.5 |
| 20260903144256 | 67 | 5 | 2.0 | 3.0 | 0.00 | 0.00 | 0.00 | 22 | 1018.6 |
| 20260903143236 | 66 | 5 | 3.0 | 4.0 | 0.00 | 0.00 | 0.00 | 24 | 1018.5 |
| 20260903142215 | 65 | 263 | 2.0 | 4.0 | 0.00 | 0.00 | 0.00 | 23 | 1018.1 |
| 20260903141216 | 64 | 248 | 4.0 | 8.0 | 0.00 | 0.00 | 0.00 | 23 | 1018.2 |
| 20260903140216 | 63 | 248 | 4.0 | 9.0 | 0.00 | 0.00 | 0.00 | 23 | 1017.8 |
| 20260903135236 | 63 | 261 | 4.0 | 6.0 | 0.00 | 0.00 | 0.00 | 24 | 1017.9 |
| 20260903134216 | 62 | 259 | 5.0 | 7.0 | 0.00 | 0.00 | 0.00 | 24 | 1017.7 |
| 20260903133215 | 62 | 249 | 7.0 | 10.0 | 0.00 | 0.00 | 0.00 | 24 | 1017.6 |
| 20260903132215 | 62 | 257 | 9.0 | 13.0 | 0.00 | 0.00 | 0.00 | 24 | 1017.5 |
| 20260903131215 | 62 | 258 | 5.0 | 9.0 | 0.00 | 0.00 | 0.00 | 24 | 1017.3 |
| 20260903130215 | 61 | 249 | 8.0 | 10.0 | 0.00 | 0.00 | 0.00 | 24 | 1017.3 |
| 20260903125216 | 61 | 244 | 6.0 | 8.0 | 0.00 | 0.00 | 0.00 | 24 | 1017.1 |
| 20260903124215 | 61 | 233 | 5.0 | 10.0 | 0.00 | 0.00 | 0.00 | 24 | 1017.1 |
| 20260903123215 | 61 | 245 | 6.0 | 10.0 | 0.00 | 0.00 | 0.00 | 25 | 1017.2 |
| 20260903122215 | 61 | 251 | 5.0 | 8.0 | 0.00 | 0.00 | 0.00 | 24 | 1017.0 |
| 20260903121215 | 62 | 237 | 5.0 | 9.0 | 0.00 | 0.00 | 0.00 | 24 | 1017.3 |
| 20260903120215 | 62 | 234 | 6.0 | 10.0 | 0.00 | 0.00 | 0.00 | 24 | 1017.3 |
| 20260903115235 | 61 | 267 | 4.0 | 7.0 | 0.00 | 0.00 | 0.00 | 26 | 1017.1 |
| 20260903114218 | 60 | 267 | 2.0 | 3.0 | 0.00 | 0.00 | 0.00 | 26 | 1017.1 |
| 20260903113235 | 60 | 267 | 2.0 | 3.0 | 0.00 | 0.00 | 0.00 | 26 | 1017.1 |
| 20260903112215 | 60 | 267 | 3.0 | 4.0 | 0.00 | 0.00 | 0.00 | 26 | 1017.0 |
| 20260903111215 | 61 | 267 | 3.0 | 4.0 | 0.00 | 0.00 | 0.00 | 24 | 1017.0 |
| 20260903110215 | 63 | 267 | 0.0 | 1.0 | 0.00 | 0.00 | 0.00 | 23 | 1017.3 |
| 20260903105235 | 63 | 267 | 2.0 | 3.0 | 0.00 | 0.00 | 0.00 | 22 | 1017.3 |
| 20260903104215 | 64 | 267 | 4.0 | 6.0 | 0.00 | 0.00 | 0.00 | 22 | 1017.4 |
| 20260903103215 | 64 | 267 | 4.0 | 6.0 | 0.00 | 0.00 | 0.00 | 22 | 1017.4 |
| 20260903102215 | 63 | 267 | 3.0 | 4.0 | 0.00 | 0.00 | 0.00 | 22 | 1017.4 |
| 20260903101235 | 64 | 260 | 3.0 | 5.0 | 0.00 | 0.00 | 0.00 | 22 | 1017.4 |
| 20260903100215 | 64 | 244 | 4.0 | 5.0 | 0.00 | 0.00 | 0.00 | 22 | 1017.3 |
| 20260903095215 | 64 | 252 | 4.0 | 6.0 | 0.00 | 0.00 | 0.00 | 22 | 1017.3 |
| 20260903094235 | 64 | 254 | 6.0 | 9.0 | 0.00 | 0.00 | 0.00 | 22 | 1017.2 |
| 20260903093215 | 64 | 260 | 4.0 | 6.0 | 0.00 | 0.00 | 0.00 | 23 | 1017.2 |
| 20260903092215 | 64 | 250 | 2.0 | 3.0 | 0.00 | 0.00 | 0.00 | 23 | 1017.1 |
| 20260903091215 | 63 | 250 | 2.0 | 2.0 | 0.00 | 0.00 | 0.00 | 23 | 1017.0 |
| 20260903090215 | 62 | 350 | 2.0 | 3.0 | 0.00 | 0.00 | 0.00 | 24 | 1016.7 |
| 20260903085215 | 62 | 350 | 1.0 | 2.0 | 0.00 | 0.00 | 0.00 | 24 | 1016.6 |
| 20260903084217 | 62 | 350 | 1.0 | 2.0 | 0.00 | 0.00 | 0.00 | 24 | 1016.6 |
| 20260903083215 | 62 | 350 | 1.0 | 3.0 | 0.00 | 0.00 | 0.00 | 24 | 1016.4 |
| 20260903082257 | 63 | 328 | 2.0 | 5.0 | 0.00 | 0.00 | 0.00 | 23 | 1016.7 |
| 20260903081216 | 63 | 252 | 2.0 | 3.0 | 0.00 | 0.00 | 0.00 | 23 | 1016.4 |
| 20260903080237 | 64 | 252 | 1.0 | 3.0 | 0.00 | 0.00 | 0.00 | 23 | 1016.4 |
| 20260903075217 | 64 | 252 | 1.0 | 3.0 | 0.00 | 0.00 | 0.00 | 23 | 1016.4 |
| 20260903074217 | 65 | 252 | 0.0 | 3.0 | 0.00 | 0.00 | 0.00 | 23 | 1016.4 |
| 20260903073217 | 66 | 0.0 | 1.0 | 0.00 | 0.00 | 0.00 | 22 | 1016.4 | |
| 20260903072217 | 66 | 252 | 2.0 | 3.0 | 0.00 | 0.00 | 0.00 | 22 | 1016.5 |
| 20260903071217 | 66 | 252 | 1.0 | 3.0 | 0.00 | 0.00 | 0.00 | 21 | 1016.4 |
| 20260903070217 | 67 | 258 | 3.0 | 4.0 | 0.00 | 0.00 | 0.00 | 21 | 1016.3 |
| 20260903065217 | 67 | 213 | 2.0 | 5.0 | 0.00 | 0.00 | 0.00 | 21 | 1016.5 |
| 20260903064217 | 67 | 195 | 2.0 | 4.0 | 0.00 | 0.00 | 0.00 | 23 | 1016.4 |
| 20260903063217 | 68 | 198 | 1.0 | 2.0 | 0.00 | 0.00 | 0.00 | 22 | 1015.9 |
| 20260903062217 | 68 | 249 | 0.0 | 1.0 | 0.00 | 0.00 | 0.00 | 22 | 1016.1 |
| 20260903061216 | 68 | 249 | 1.0 | 2.0 | 0.00 | 0.00 | 0.00 | 21 | 1015.9 |
| 20260903060217 | 69 | 249 | 0.0 | 1.0 | 0.00 | 0.00 | 0.00 | 21 | 1015.7 |
| 20260903055254 | 69 | 249 | 1.0 | 2.0 | 0.00 | 0.00 | 0.00 | 20 | 1015.7 |
| 20260903054216 | 70 | 249 | 1.0 | 3.0 | 0.00 | 0.00 | 0.00 | 20 | 1015.7 |
| 20260903053216 | 70 | 249 | 2.0 | 5.0 | 0.00 | 0.00 | 0.00 | 18 | 1015.6 |
| 20260903052236 | 70 | 249 | 1.0 | 3.0 | 0.00 | 0.00 | 0.00 | 19 | 1015.6 |
| 20260903051236 | 71 | 256 | 1.0 | 2.0 | 0.00 | 0.00 | 0.00 | 19 | 1016.0 |
| 20260903050216 | 71 | 256 | 2.0 | 5.0 | 0.00 | 0.00 | 0.00 | 18 | 1016.0 |
| 20260903045216 | 71 | 242 | 1.0 | 3.0 | 0.00 | 0.00 | 0.00 | 18 | 1016.1 |
| 20260903044215 | 72 | 265 | 3.0 | 4.0 | 0.00 | 0.00 | 0.00 | 18 | 1016.2 |
| 20260903043216 | 73 | 258 | 4.0 | 7.0 | 0.00 | 0.00 | 0.00 | 17 | 1016.0 |
| 20260903042215 | 73 | 234 | 4.0 | 10.0 | 0.00 | 0.00 | 0.00 | 16 | 1016.0 |
| 20260903041215 | 73 | 258 | 7.0 | 11.0 | 0.00 | 0.00 | 0.00 | 16 | 1015.8 |
| 20260903040215 | 73 | 242 | 6.0 | 10.0 | 0.00 | 0.00 | 0.00 | 16 | 1015.5 |
| 20260903035215 | 73 | 249 | 3.0 | 6.0 | 0.00 | 0.00 | 0.00 | 17 | 1015.4 |
| 20260903034216 | 73 | 200 | 2.0 | 5.0 | 0.00 | 0.00 | 0.00 | 18 | 1015.4 |
| 20260903033215 | 74 | 259 | 1.0 | 3.0 | 0.00 | 0.00 | 0.00 | 17 | 1015.0 |
| 20260903032216 | 74 | 262 | 2.0 | 4.0 | 0.00 | 0.00 | 0.00 | 17 | 1015.1 |
| 20260903031215 | 74 | 230 | 8.0 | 10.0 | 0.00 | 0.00 | 0.00 | 15 | 1014.8 |
| 20260903030236 | 74 | 251 | 3.0 | 5.0 | 0.00 | 0.00 | 0.00 | 17 | 1015.2 |
| 20260903025215 | 75 | 236 | 4.0 | 6.0 | 0.00 | 0.00 | 0.00 | 16 | 1015.2 |
| 20260903024215 | 75 | 227 | 1.0 | 2.0 | 0.00 | 0.00 | 0.00 | 16 | 1015.4 |
| 20260903023215 | 75 | 178 | 3.0 | 6.0 | 0.00 | 0.00 | 0.00 | 16 | 1015.0 |
| 20260903022235 | 76 | 234 | 2.0 | 4.0 | 0.00 | 0.00 | 0.00 | 15 | 1015.0 |
| 20260903021215 | 76 | 191 | 1.0 | 3.0 | 0.00 | 0.00 | 0.00 | 15 | 1015.1 |
| 20260903020215 | 77 | 190 | 3.0 | 7.0 | 0.00 | 0.00 | 0.00 | 15 | 1014.8 |
| 20260903015215 | 77 | 184 | 3.0 | 6.0 | 0.00 | 0.00 | 0.00 | 15 | 1015.4 |
| 20260903014255 | 78 | 191 | 5.0 | 8.0 | 0.00 | 0.00 | 0.00 | 15 | 1015.4 |
| 20260903013215 | 78 | 192 | 6.0 | 13.0 | 0.00 | 0.00 | 0.00 | 15 | 1015.3 |
| 20260903012215 | 79 | 200 | 9.0 | 13.0 | 0.00 | 0.00 | 0.00 | 14 | 1015.8 |
| 20260903011215 | 79 | 212 | 8.0 | 13.0 | 0.00 | 0.00 | 0.00 | 15 | 1015.8 |
| 20260903010215 | 79 | 204 | 9.0 | 15.0 | 0.00 | 0.00 | 0.00 | 14 | 1015.5 |
| 20260903005235 | 79 | 196 | 10.0 | 14.0 | 0.00 | 0.00 | 0.00 | 14 | 1015.6 |
| 20260903004215 | 79 | 179 | 6.0 | 10.0 | 0.00 | 0.00 | 0.00 | 15 | 1015.7 |
| 20260903003215 | 80 | 203 | 8.0 | 13.0 | 0.00 | 0.00 | 0.00 | 15 | 1015.4 |
| 20260903002255 | 80 | 202 | 12.0 | 18.0 | 0.00 | 0.00 | 0.00 | 15 | 1015.4 |
| 20260903001215 | 80 | 190 | 11.0 | 18.0 | 0.00 | 0.00 | 0.00 | 14 | 1015.5 |
| 20260903000215 | 81 | 211 | 12.0 | 23.0 | 0.00 | 0.00 | 0.00 | 13 | 1015.5 |
| 20260902235215 | 81 | 222 | 12.0 | 22.0 | 0.00 | 0.00 | 0.00 | 14 | 1015.7 |
| 20260902234215 | 81 | 204 | 12.0 | 26.0 | 0.00 | 0.00 | 0.00 | 15 | 1015.9 |
| 20260902233215 | 81 | 208 | 11.0 | 18.0 | 0.00 | 0.00 | 0.00 | 15 | 1016.0 |
| 20260902232217 | 80 | 199 | 10.0 | 15.0 | 0.00 | 0.00 | 0.00 | 18 | 1016.2 |
| 20260902231217 | 80 | 194 | 14.0 | 20.0 | 0.00 | 0.00 | 0.00 | 16 | 1016.2 |
| 20260902230217 | 80 | 199 | 8.0 | 15.0 | 0.00 | 0.00 | 0.00 | 16 | 1016.3 |
| 20260902225217 | 81 | 233 | 16.0 | 20.0 | 0.00 | 0.00 | 0.00 | 15 | 1016.5 |
| 20260902224217 | 80 | 177 | 8.0 | 13.0 | 0.00 | 0.00 | 0.00 | 19 | 1016.4 |
| 20260902223237 | 81 | 188 | 10.0 | 18.0 | 0.00 | 0.00 | 0.00 | 18 | 1016.3 |
| 20260902222237 | 81 | 217 | 11.0 | 17.0 | 0.00 | 0.00 | 0.00 | 17 | 1016.6 |
| 20260902221217 | 81 | 210 | 12.0 | 20.0 | 0.00 | 0.00 | 0.00 | 18 | 1016.6 |
| 20260902220217 | 81 | 212 | 11.0 | 19.0 | 0.00 | 0.00 | 0.00 | 18 | 1016.6 |
| 20260902215217 | 80 | 187 | 12.0 | 22.0 | 0.00 | 0.00 | 0.00 | 20 | 1016.5 |
| 20260902214216 | 80 | 224 | 13.0 | 21.0 | 0.00 | 0.00 | 0.00 | 20 | 1016.7 |
| 20260902213217 | 80 | 232 | 19.0 | 25.0 | 0.00 | 0.00 | 0.00 | 21 | 1016.6 |
| 20260902212216 | 80 | 224 | 11.0 | 17.0 | 0.00 | 0.00 | 0.00 | 21 | 1016.7 |
| 20260902211216 | 81 | 196 | 16.0 | 25.0 | 0.00 | 0.00 | 0.00 | 23 | 1016.8 |
| 20260902210217 | 80 | 201 | 15.0 | 23.0 | 0.00 | 0.00 | 0.00 | 20 | 1016.7 |
| 20260902205216 | 81 | 185 | 14.0 | 23.0 | 0.00 | 0.00 | 0.00 | 22 | 1017.1 |
| 20260902204216 | 81 | 194 | 12.0 | 22.0 | 0.00 | 0.00 | 0.00 | 22 | 1016.8 |
| 20260902203216 | 80 | 196 | 16.0 | 24.0 | 0.00 | 0.00 | 0.00 | 24 | 1017.3 |
| 20260902202216 | 80 | 226 | 12.0 | 25.0 | 0.00 | 0.00 | 0.00 | 25 | 1017.4 |
| 20260902201216 | 79 | 185 | 13.0 | 24.0 | 0.00 | 0.00 | 0.00 | 25 | 1017.3 |
| 20260902200216 | 79 | 217 | 8.0 | 21.0 | 0.00 | 0.00 | 0.00 | 26 | 1017.7 |
| 20260902195216 | 79 | 181 | 14.0 | 22.0 | 0.00 | 0.00 | 0.00 | 26 | 1017.9 |
| 20260902194216 | 78 | 171 | 7.0 | 13.0 | 0.00 | 0.00 | 0.00 | 28 | 1017.7 |
| 20260902193216 | 79 | 174 | 9.0 | 16.0 | 0.00 | 0.00 | 0.00 | 26 | 1017.9 |
| 20260902192216 | 79 | 212 | 12.0 | 26.0 | 0.00 | 0.00 | 0.00 | 27 | 1018.0 |
| 20260902191216 | 78 | 218 | 11.0 | 18.0 | 0.00 | 0.00 | 0.00 | 25 | 1018.0 |
| 20260902190216 | 78 | 201 | 11.0 | 19.0 | 0.00 | 0.00 | 0.00 | 28 | 1017.9 |
| 20260902185216 | 77 | 196 | 9.0 | 14.0 | 0.00 | 0.00 | 0.00 | 29 | 1017.9 |
| 20260902184216 | 77 | 233 | 13.0 | 23.0 | 0.00 | 0.00 | 0.00 | 29 | 1018.1 |
| 20260902183216 | 77 | 218 | 8.0 | 17.0 | 0.00 | 0.00 | 0.00 | 32 | 1018.6 |
| 20260902182316 | 77 | 206 | 12.0 | 20.0 | 0.00 | 0.00 | 0.00 | 32 | 1018.9 |
| 20260902181216 | 76 | 218 | 17.0 | 26.0 | 0.00 | 0.00 | 0.00 | 31 | 1018.7 |
| 20260902180217 | 75 | 208 | 10.0 | 22.0 | 0.00 | 0.00 | 0.00 | 31 | 1018.5 |
| 20260902175216 | 76 | 205 | 14.0 | 23.0 | 0.00 | 0.00 | 0.00 | 32 | 1018.8 |
| 20260902174216 | 75 | 210 | 15.0 | 24.0 | 0.00 | 0.00 | 0.00 | 34 | 1018.9 |
| 20260902173216 | 76 | 213 | 12.0 | 24.0 | 0.00 | 0.00 | 0.00 | 33 | 1018.9 |
| 20260902172216 | 75 | 229 | 19.0 | 28.0 | 0.00 | 0.00 | 0.00 | 35 | 1019.0 |
| 20260902171236 | 75 | 202 | 11.0 | 21.0 | 0.00 | 0.00 | 0.00 | 35 | 1018.9 |
| 20260902170216 | 76 | 217 | 14.0 | 22.0 | 0.00 | 0.00 | 0.00 | 37 | 1019.2 |
| 20260902165216 | 76 | 202 | 16.0 | 26.0 | 0.00 | 0.00 | 0.00 | 37 | 1019.6 |
| 20260902164216 | 75 | 196 | 14.0 | 21.0 | 0.00 | 0.00 | 0.00 | 38 | 1019.4 |
| 20260902163216 | 75 | 198 | 9.0 | 19.0 | 0.00 | 0.00 | 0.00 | 39 | 1019.4 |
| 20260902162216 | 73 | 203 | 9.0 | 15.0 | 0.00 | 0.00 | 0.00 | 39 | 1019.3 |
| 20260902161216 | 74 | 194 | 13.0 | 21.0 | 0.00 | 0.00 | 0.00 | 39 | 1019.5 |
| 20260902160216 | 73 | 197 | 12.0 | 19.0 | 0.00 | 0.00 | 0.00 | 39 | 1019.3 |
| 20260902155216 | 73 | 188 | 18.0 | 26.0 | 0.00 | 0.00 | 0.00 | 40 | 1019.4 |
| 20260902154236 | 71 | 179 | 10.0 | 17.0 | 0.00 | 0.00 | 0.00 | 47 | 1019.2 |
| 20260902153216 | 70 | 134 | 8.0 | 12.0 | 0.00 | 0.00 | 0.00 | 52 | 1019.6 |
| 20260902152216 | 69 | 176 | 7.0 | 10.0 | 0.00 | 0.00 | 0.00 | 54 | 1019.3 |
| 20260902151215 | 68 | 129 | 7.0 | 11.0 | 0.00 | 0.00 | 0.00 | 56 | 1019.4 |
| 20260902150216 | 69 | 150 | 5.0 | 8.0 | 0.00 | 0.00 | 0.00 | 55 | 1019.8 |